Regional Weather Roundup
Issued by NWS

Home | Current Version | Previous Version | Graphics & Text | Print | Product List | Glossary On
Versions: 1 2 3 4 5 6 7 8 9 10 11 12 13 14 15 16 17 18 19 20 21 22 23 24 25 26 27 28 29 30 31 32 33 34 35 36 37 38 39 40 41 42 43 44 45 46 47 48 49 50
000
ASUS43 KOAX 192210
RWRNE

WEATHER ROUNDUP FOR NEBRASKA
NATIONAL WEATHER SERVICE OMAHA NE
500 PM CDT THU OCT 19 2017

NOTES: SATELLITE DATA IS BEING USED TO AUGMENT CLOUD COVER ABOVE
       12000 FEET.
       "FAIR" INDICATES FEW OR NO CLOUDS BELOW 12,000 FEET WITH NO
       SIGNIFICANT WEATHER AND/OR OBSTRUCTIONS TO VISIBILITY.


NEZ001>004-019>022-054>056-192300-
NEBRASKA PANHANDLE

CITY           SKY/WX    TMP DP  RH WIND       PRES   REMARKS
SCOTTSBLUFF    SUNNY     82  24  12 S16       29.85F
ALLIANCE       SUNNY     81  28  14 S17G28    29.87S
CHADRON        SUNNY     85  13   7 S13       29.79F
GORDON         FAIR      82  30  15 S13       29.84F
KIMBALL        CLOUDY    76  22  13 S14       29.93S
SIDNEY         SUNNY     82  27  13 S22G30    29.90S
$$

NEZ057>060-069>072-079>082-192300-
SOUTHWEST NEBRASKA

CITY           SKY/WX    TMP DP  RH WIND       PRES   REMARKS
NORTH PLATTE   SUNNY     79  49  34 S10       29.90F
IMPERIAL       SUNNY     83  36  18 S21       29.90F
LEXINGTON      SUNNY     80  47  31 S15G21    29.93S
MCCOOK         SUNNY     82  45  27 S21G29    29.91F
OGALLALA       SUNNY     84  36  17 S14G24    29.88F
$$

NEZ005>010-023>029-035>040-094-192300-
NORTH CENTRAL NEBRASKA

CITY           SKY/WX    TMP DP  RH WIND       PRES   REMARKS
VALENTINE      SUNNY     86  34  15 S21       29.83S
AINSWORTH      SUNNY     79  43  28 S17       29.87F
BROKEN BOW     SUNNY     79  48  33 S14       29.92F
O`NEILL        SUNNY     77  47  34 S14       29.90F
ORD            SUNNY     79  45  29 S12G22    29.91F
THEDFORD       SUNNY     81  42  24 S18       29.90F
$$

NEZ041-046>049-061>064-073>077-083>087-192300-
SOUTH CENTRAL NEBRASKA

CITY           SKY/WX    TMP DP  RH WIND       PRES   REMARKS
GRAND ISLAND   SUNNY     80  50  34 S15       29.94F
AURORA         SUNNY     81  48  31 S14       29.95S
HASTINGS       SUNNY     79  47  32 S12G22    29.96S
HEBRON         SUNNY     82  47  30 S14G21    29.97F
HOLDREGE       SUNNY     79  50  36 S14G20    29.94F
KEARNEY        SUNNY     80  49  33 S17G24    29.94F
YORK           SUNNY     81  50  34 S17       29.96S
$$

NEZ011>018-030>034-042>045-192300-
NORTHEAST NEBRASKA

CITY           SKY/WX    TMP DP  RH WIND       PRES   REMARKS
NORFOLK        SUNNY     78  49  35 S16       29.91F
ALBION         SUNNY     80  46  30 S14       29.94S
BLAIR          SUNNY     78  54  42 S8        29.98S
COLUMBUS       SUNNY     80  49  33 S9        29.95F
FREMONT        SUNNY     78  49  35 S9        29.97F
TEKAMAH        SUNNY     77  51  40 S10       29.96F
WAYNE          SUNNY     75  47  35 S10G18    29.94S
$$

NEZ050>053-065>068-078-088>093-192300-
SOUTHEAST NEBRASKA

CITY           SKY/WX    TMP DP  RH WIND       PRES   REMARKS
LINCOLN        SUNNY     79  55  43 S13       29.97F
OMAHA EPPLEY   SUNNY     78  52  40 S15       29.98S
BEATRICE       SUNNY     80  53  39 S9        29.98F
FALLS CITY     SUNNY     78  51  38 SE10      30.01S
NEBRASKA CITY  SUNNY     79  53  41 S13G18    30.00S
PLATTSMOUTH    SUNNY     79  54  41 S12G17    29.99S
$$

NEZ044-045-051>053-067-192300-
OMAHA AREA

CITY           SKY/WX    TMP DP  RH WIND       PRES   REMARKS
OMAHA EPPLEY   SUNNY     78  52  40 S15       29.98S
BLAIR          SUNNY     78  54  42 S8        29.98S
FREMONT        SUNNY     78  49  35 S9        29.97F
MILLARD        SUNNY     79  56  44 S10       29.97F
OFFUTT AFB     SUNNY     77  54  44 SE9       29.97F
PLATTSMOUTH    SUNNY     79  54  41 S12G17    29.99S
WAHOO          FAIR      80  50  35 S14       29.96F
$$




USA.gov is the U.S. government's official web portal to all federal, state and local government web resources and services.